Вернуться в каталог

STRV 1D

АктивенНаукаGTO
NORAD 26611·PAYLOAD·🇬🇧 United Kingdom

Запущен Nov 16, 2000 с Guiana Space Centre

Loading…

TLE

УстаревающийSource: Space-Track

Эпоха: Sep 14, 2026, 06:01 UTC

1 26611U 00072D   26257.25119239 -.00000030  00000-0  44811-2 0  9993
2 26611   7.1338 342.7294 7340710 235.0086  33.2420  2.03410230 92300

Отслеживайте STRV 1D в реальном времени с AllMySat

Download on the App Store